CW5834 Weather Reports


time (UTC)temp
C
wind
direction
speed
KPH
gust
KPH
rain 1hr
cm
rain 24hr
cm
rain mn
cm
humidity
%
barometer
mb
20260509181516 21 225 4.8 12.9 0.00 0.00 0.00 60 1011.6
20260509180516 21 225 3.2 8.0 0.00 0.00 0.00 59 1011.8
20260509175516 21 225 3.2 11.3 0.00 0.00 0.00 61 1011.9
20260509174536 21 293 4.8 12.9 0.00 0.00 0.00 59 1012.0
20260509173515 21 203 6.4 12.9 0.00 0.00 0.00 59 1012.0
20260509172516 21 203 6.4 11.3 0.00 0.00 0.00 64 1012.1
20260509171516 20 203 4.8 9.7 0.00 0.00 0.00 61 1012.2
20260509170515 20 225 8.0 19.3 0.00 0.00 0.00 62 1012.3
20260509165516 20 225 4.8 14.5 0.00 0.00 0.00 61 1012.5
20260509164516 20 203 4.8 11.3 0.00 0.00 0.00 65 1012.5
20260509163536 20 248 4.8 14.5 0.00 0.00 0.00 64 1012.4
20260509162536 19 225 8.0 14.5 0.00 0.00 0.00 65 1012.3
20260509161516 19 180 4.8 14.5 0.00 0.00 0.00 65 1012.5
20260509160515 18 203 4.8 12.9 0.00 0.00 0.00 67 1012.3
20260509155515 18 225 8.0 14.5 0.00 0.00 0.00 68 1012.4
20260509154515 17 203 6.4 16.1 0.00 0.00 0.00 70 1012.5
20260509153515 17 203 4.8 12.9 0.00 0.00 0.00 76 1012.6
20260509152515 16 225 4.8 12.9 0.00 0.00 0.00 76 1012.8
20260509151515 17 203 4.8 11.3 0.00 0.00 0.00 75 1012.6
20260509150535 17 225 6.4 17.7 0.00 0.00 0.00 73 1012.6
20260509145515 17 203 6.4 19.3 0.00 0.00 0.00 75 1012.5
20260509144517 16 225 8.0 17.7 0.00 0.00 0.00 76 1012.2
20260509143517 16 225 6.4 12.9 0.00 0.00 0.00 78 1012.2
20260509142558 16 203 6.4 16.1 0.00 0.00 0.00 76 1011.9
20260509141517 16 203 6.4 16.1 0.00 0.00 0.00 78 1011.8
20260509140535 15 203 4.8 12.9 0.00 0.00 0.00 79 1012.0
20260509135517 15 203 4.8 14.5 0.00 0.00 0.00 80 1012.2
20260509134522 14 248 3.2 11.3 0.00 0.00 0.00 80 1012.4
20260509133537 14 248 3.2 8.0 0.00 0.00 0.00 81 1012.2
20260509132517 14 225 3.2 11.3 0.00 0.00 0.00 80 1012.6
20260509131537 14 203 3.2 8.0 0.00 0.00 0.00 80 1012.4
20260509130517 15 270 1.6 8.0 0.00 0.00 0.00 80 1012.1
20260509125537 14 225 3.2 8.0 0.00 0.00 0.00 82 1012.2
20260509124517 13 203 3.2 8.0 0.00 0.00 0.00 82 1012.3
20260509123517 13 248 3.2 6.4 0.00 0.00 0.00 82 1012.5
20260509122517 13 225 1.6 6.4 0.00 0.00 0.00 83 1012.1
20260509121517 12 248 1.6 4.8 0.00 0.00 0.00 84 1012.2
20260509120517 12 248 1.6 6.4 0.00 0.00 0.00 86 1012.2
20260509115537 11 0.0 3.2 0.00 0.00 0.00 87 1012.5
20260509114517 11 293 1.6 3.2 0.00 0.00 0.00 89 1012.5
20260509113517 10 0.0 4.8 0.00 0.00 0.00 90 1012.7
20260509112537 10 0.0 3.2 0.00 0.00 0.00 91 1012.6
20260509111537 9 338 1.6 3.2 0.00 0.00 0.00 91 1012.6
20260509110517 8 0.0 1.6 0.00 0.00 0.00 91 1012.6
20260509105517 8 0.0 3.2 0.00 0.00 0.00 90 1012.7
20260509104557 8 0.0 1.6 0.00 0.00 0.00 89 1012.9
20260509103517 9 0.0 3.2 0.00 0.00 0.00 90 1013.1
20260509102517 8 0.0 1.6 0.00 0.00 0.00 90 1013.3
20260509101557 9 0.0 0.0 0.00 0.00 0.00 89 1012.8
20260509100517 9 0.0 3.2 0.00 0.00 0.00 90 1012.8
20260509095517 8 0.0 0.0 0.00 0.00 0.00 89 1012.6
20260509094537 8 0.0 1.6 0.00 0.00 0.00 88 1012.5
20260509093517 8 0.0 0.0 0.00 0.00 0.00 89 1012.4
20260509092517 8 0.0 0.0 0.00 0.00 0.00 89 1012.4
20260509091517 8 0.0 0.0 0.00 0.00 0.00 88 1012.4
20260509090517 8 0.0 0.0 0.00 0.00 0.00 88 1012.4
20260509085516 8 0.0 3.2 0.00 0.00 0.00 88 1012.4
20260509084516 8 0.0 1.6 0.00 0.00 0.00 87 1012.2
20260509083517 8 0.0 1.6 0.00 0.00 0.00 86 1012.1
20260509082516 9 0.0 0.0 0.00 0.00 0.00 86 1012.2
20260509081517 9 0.0 3.2 0.00 0.00 0.00 84 1012.2
20260509080536 9 0.0 0.0 0.00 0.00 0.00 83 1012.3
20260509075516 10 0.0 3.2 0.00 0.00 0.00 81 1012.5
20260509074517 10 0.0 3.2 0.00 0.00 0.00 85 1012.5
20260509073536 9 315 1.6 3.2 0.00 0.00 0.00 86 1012.4
20260509072516 9 0.0 3.2 0.00 0.00 0.00 83 1012.4
20260509071516 9 338 1.6 1.6 0.00 0.00 0.00 83 1012.5
20260509070516 10 0.0 1.6 0.00 0.00 0.00 78 1012.5
20260509065516 10 338 1.6 1.6 0.00 0.00 0.00 82 1012.6
20260509064516 10 315 1.6 3.2 0.00 0.00 0.00 83 1012.5
20260509063516 8 315 1.6 3.2 0.00 0.00 0.00 86 1012.5
20260509062516 8 0.0 3.2 0.00 0.00 0.00 85 1012.5
20260509061516 8 0.0 1.6 0.00 0.00 0.00 84 1012.6
20260509055516 7 0.0 0.0 0.00 0.00 0.00 84 1012.9
20260509054516 8 0.0 3.2 0.00 0.00 0.00 83 1013.1
20260509053516 8 0.0 3.2 0.00 0.00 0.00 83 1013.2
20260509052516 8 0.0 3.2 0.00 0.00 0.00 83 1013.3
20260509051536 8 0.0 1.6 0.00 0.00 0.00 81 1013.3
20260509050516 8 0.0 3.2 0.00 0.00 0.00 81 1013.4
20260509045536 8 0.0 1.6 0.00 0.00 0.00 81 1013.5
20260509044516 8 0.0 3.2 0.00 0.00 0.00 80 1013.7
20260509043516 8 0.0 3.2 0.00 0.00 0.00 80 1013.8
20260509042516 8 0.0 3.2 0.00 0.00 0.00 79 1013.9
20260509041516 8 0.0 0.0 0.00 0.00 0.00 78 1013.7
20260509040516 9 0.0 3.2 0.00 0.00 0.00 77 1013.9
20260509035517 9 0.0 0.0 0.00 0.00 0.00 76 1013.8
20260509034517 9 0.0 3.2 0.00 0.00 0.00 78 1013.8
20260509033517 9 0.0 3.2 0.00 0.00 0.00 75 1013.9
20260509032517 10 0.0 1.6 0.00 0.00 0.00 75 1014.1
20260509031517 10 0.0 0.0 0.00 0.00 0.00 72 1014.1
20260509030517 10 0.0 3.2 0.00 0.00 0.00 71 1014.1
20260509025517 10 0.0 1.6 0.00 0.00 0.00 70 1014.2
20260509024517 10 0.0 1.6 0.00 0.00 0.00 71 1014.0
20260509023517 11 0.0 0.0 0.00 0.00 0.00 70 1014.1
20260509022516 11 0.0 0.0 0.00 0.00 0.00 67 1014.2
20260509021537 11 0.0 1.6 0.00 0.00 0.00 67 1014.2
20260509020540 11 0.0 0.0 0.00 0.00 0.00 67 1014.2
20260509015517 12 0.0 0.0 0.00 0.00 0.00 62 1013.9
20260509014517 12 0.0 3.2 0.00 0.00 0.00 61 1013.6
20260509013637 12 0.0 0.0 0.00 0.00 0.00 58 1013.9
20260509012516 13 0.0 0.0 0.00 0.00 0.00 58 1013.6
20260509011537 13 0.0 0.0 0.00 0.00 0.00 56 1013.5
20260509010517 13 0.0 3.2 0.00 0.00 0.00 60 1013.4
20260509005517 14 338 1.6 1.6 0.00 0.00 0.00 59 1013.5
20260509004537 14 0.0 0.0 0.00 0.00 0.00 52 1013.1
20260509003516 15 0.0 3.2 0.00 0.00 0.00 53 1013.2
20260509002516 15 315 1.6 1.6 0.00 0.00 0.00 55 1013.2
20260509001517 16 0.0 1.6 0.00 0.00 0.00 48 1012.8
20260509000516 16 0.0 3.2 0.00 0.00 0.00 47 1013.1
20260508235516 17 315 1.6 1.6 0.00 0.00 0.00 46 1013.1
20260508234516 17 315 1.6 1.6 0.00 0.00 0.00 41 1013.0
20260508233516 18 0.0 3.2 0.00 0.00 0.00 38 1013.5
20260508232516 20 270 1.6 4.8 0.00 0.00 0.00 34 1013.3
20260508231516 21 0.0 3.2 0.00 0.00 0.00 34 1013.4
20260508230516 21 0.0 3.2 0.00 0.00 0.00 33 1013.4
20260508225516 21 203 1.6 6.4 0.00 0.00 0.00 30 1013.6
20260508224516 21 315 1.6 4.8 0.00 0.00 0.00 33 1013.6
20260508223516 21 225 3.2 8.0 0.00 0.00 0.00 33 1013.6
20260508222516 21 225 3.2 11.3 0.00 0.00 0.00 36 1013.8
20260508221516 21 248 4.8 12.9 0.00 0.00 0.00 30 1013.9
20260508220516 21 248 1.6 4.8 0.00 0.00 0.00 32 1013.9
20260508215516 21 203 4.8 14.5 0.00 0.00 0.00 31 1013.8
20260508214617 21 270 1.6 6.4 0.00 0.00 0.00 29 1013.8
20260508213516 21 225 4.8 14.5 0.00 0.00 0.00 33 1013.9
20260508212516 21 203 3.2 8.0 0.00 0.00 0.00 33 1013.7
20260508211516 21 248 1.6 6.4 0.00 0.00 0.00 31 1013.9
20260508210536 21 270 3.2 6.4 0.00 0.00 0.00 30 1013.9
20260508205516 21 248 4.8 12.9 0.00 0.00 0.00 30 1013.9
20260508204516 21 225 3.2 8.0 0.00 0.00 0.00 36 1014.0
20260508203536 21 270 3.2 9.7 0.00 0.00 0.00 33 1014.2
20260508202516 20 315 3.2 16.1 0.00 0.00 0.00 36 1014.2
20260508201516 21 0 4.8 14.5 0.00 0.00 0.00 38 1014.5
20260508200516 21 225 1.6 6.4 0.00 0.00 0.00 35 1014.7
20260508195516 21 225 4.8 9.7 0.00 0.00 0.00 36 1014.9
20260508194516 21 225 1.6 4.8 0.00 0.00 0.00 36 1015.3
20260508193516 20 180 3.2 16.1 0.00 0.00 0.00 36 1015.7
20260508192536 20 203 4.8 11.3 0.00 0.00 0.00 34 1015.8
20260508191516 20 23 3.2 6.4 0.00 0.00 0.00 35 1015.9
20260508190516 20 68 1.6 6.4 0.00 0.00 0.00 35 1015.9
20260508185526 20 203 3.2 11.3 0.00 0.00 0.00 33 1016.2
20260508184516 20 180 4.8 9.7 0.00 0.00 0.00 33 1016.2
20260508183516 20 180 3.2 8.0 0.00 0.00 0.00 37 1016.5
20260508182516 20 23 1.6 4.8 0.00 0.00 0.00 35 1016.6